User: anonymous   Login
Location: Beuerbach
(48.1459°N, 10.9174°E)
Time: 14:15:07
(UTC+00:00)
Language:

Cosmos 1833 Rocket - Orbit

View from above orbital plane
View from above orbital plane
View from above satellite
View from above satellite

Ground track
Ground track

The orbit data is extracted from the following two-line orbital elements,

1 17590U 87027B   24195.95396965  .00000115  00000-0  80919-4 0  9997
2 17590  71.0034 108.5573 0006625 307.1251  52.9267 14.16984082929853
Epoch (UTC): 13 July 2024 22:53:42
Eccentricity: 0.0006625
inclination: 71.0034°
perigee height: 831 km
apogee height: 840 km
right ascension of ascending node: 108.5573°
argument of perigee: 307.1251°
revolutions per day: 14.16984082
mean anomaly at epoch: 52.9267°
orbit number at epoch: 92985

The dashed part of the orbit path shows where the satellite is in the earth's shadow,  

DLR